Temperature
18 18 18 18 18 18 18 18 18 18 18 18 18 18 18 18 18 18 18 19 19 19 19 19 19 19 19 18 18 18 18 18 18 18 18 18 18 18 18 18 18 18 18
19 18 18 18 18 18 18 18 18 18 18 18 18 18 18 18 18 18 18 18 18 18 18 18 18 18 18 18 18 18 18 18 18 18 18 18 18 18 18 18 18 18 18
18 18 18 18 18 18 18 18 18 18 18 18 18 18 18 18 18 18 18 18 18 18 18 18 18 18 18 18 18 18 18 18 18 18 18 18 18 18 18 18 18 18 18
18 18 18 18 18 18 18 18 18 18 18 18 18 18 18 18 18 18 18 18 18 18 18 18 18 18 18 18 18 18 18 18 18 18 18 18 18 18 18 18 18 18 18
18 18 18 18 18 18 18 18 18 18 18 18 18 18 17 17 17 17 17 17 18 18 18 18 18 18 18 18 18 18 18 18 18 18 18 18 18 18 18 18 18 18 18
18 18 18 18 18 18 17 17 17 17 17 17 17 17 17 17 17 17 17 17 17 17 17 17 17 17 18 18 18 18 18 18 18 18 18 18 18 18 18 18 18 18 18
18 18 18 17 17 17 17 17 17 17 17 17 17 17 17 17 17 17 17 17 17 17 17 17 17 17 17 17 17 17 18 18 18 18 18 18 18 18 18 18 18 18 18
18 18 17 17 17 17 17 17 17 17 16 16 16 16 16 16 16 16 16 16 16 16 16 17 17 17 17 17 17 17 17 17 17 18 18 18 18 18 18 18 18 18 18
18 18 17 17 17 17 17 17 16 16 16 16 16 16 16 16 16 16 16 16 16 16 16 16 16 17 17 17 17 17 17 17 17 17 17 17 17 18 18 18 18 18 18
18 17 17 17 17 17 17 16 16 16 16 16 16 16 16 15 15 15 15 15 15 15 15 16 16 16 16 17 17 17 17 17 17 17 17 17 17 17 18 18 18 18 18
18 17 17 17 17 17 17 16 16 16 16 16 15 15 15 15 15 15 15 15 15 15 15 15 15 16 16 16 16 17 17 17 17 17 17 17 17 17 17 18 18 18 18
18 18 17 17 17 17 16 16 16 16 16 15 15 15 15 15 15 15 15 15 15 15 15 15 15 15 16 16 16 16 17 17 17 17 17 17 17 17 17 17 18 18 18
18 18 17 17 17 17 16 16 16 16 16 15 15 15 15 15 14 14 14 14 14 14 15 15 15 15 15 15 16 16 16 17 17 17 17 17 17 17 17 17 17 17 17
18 18 17 17 17 17 16 16 16 16 15 15 15 15 15 14 14 14 14 14 14 14 14 14 15 15 15 15 15 16 16 16 17 17 17 17 17 17 17 17 17 17 17
18 18 18 17 17 17 16 16 16 15 15 15 15 15 14 14 14 14 14 14 14 14 14 14 14 15 15 15 15 15 16 16 16 16 17 17 17 17 17 17 17 17 17
18 18 18 17 17 17 16 16 16 15 15 15 15 14 14 14 14 14 14 14 14 14 14 14 14 14 15 15 15 15 15 16 16 16 16 16 16 17 17 17 17 17 17
18 18 18 17 17 16 16 16 15 15 15 15 14 14 14 14 14 14 14 14 14 14 14 14 14 14 14 15 15 15 15 15 16 16 16 16 16 17 17 17 17 17 17
19 18 18 17 17 16 16 16 15 15 15 14 14 14 14 14 14 13 13 13 13 14 14 14 14 14 14 14 15 15 15 15 15 16 16 16 16 16 16 17 17 17 17
19 18 18 17 17 16 16 15 15 15 14 14 14 14 14 13 13 13 13 13 13 13 13 13 14 14 14 14 14 15 15 15 15 15 16 16 16 16 16 16 16 17 17
18 18 18 17 17 16 16 15 15 15 14 14 14 14 13 13 13 13 13 13 13 13 13 13 13 13 14 14 14 14 14 15 15 15 15 16 16 16 16 16 16 16 17
18 18 18 17 17 16 16 15 15 14 14 14 14 13 13 13 13 13 13 13 13 13 13 13 13 13 13 14 14 14 14 14 15 15 15 15 16 16 16 16 16 16 16
19 18 18 17 16 16 16 15 15 14 14 14 14 13 13 13 13 13 13 13 13 13 13 13 13 13 13 13 13 14 14 14 14 15 15 15 15 16 16 16 16 16 16
19 18 18 17 16 16 15 15 15 14 14 14 14 13 13 13 13 13 13 13 13 13 13 13 13 13 13 13 13 13 14 14 14 14 15 15 15 15 15 16 16 16 16
19 18 18 17 16 16 15 15 15 14 14 14 13 13 13 13 13 13 13 13 13 13 13 13 13 13 13 13 13 13 13 14 14 14 14 14 15 15 15 15 15 16 16
19 18 18 17 16 16 15 15 15 14 14 14 14 13 13 13 13 13 13 13 13 13 13 13 13 13 13 13 13 13 13 13 13 13 13 14 14 14 15 15 15 15 15
19 18 18 17 16 16 15 15 15 14 14 14 14 14 13 13 13 13 13 13 13 13 13 13 13 13 13 13 13 13 13 13 13 13 13 13 14 14 14 15 15 15 15
Wind_Speed
3 4 8 9 9 8 8 8 7 7 7 7 7 6 6 6 7 6 6 5 5 4 3 3 3 3 3 3 3 3 3 3 3 3 2 2 2 2 2 3 3 3 4
6 6 9 9 9 8 8 7 7 6 6 6 5 5 5 5 5 5 4 4 3 3 2 2 2 2 2 2 2 2 3 2 2 2 3 3 2 2 2 2 3 3 4
7 7 9 10 9 8 7 7 6 6 5 5 5 4 4 4 4 3 3 2 2 1 1 0 0 0 0 1 1 2 2 2 2 2 3 3 2 1 2 2 3 3 3
8 8 9 10 9 8 7 6 6 5 5 4 4 3 3 3 2 2 1 1 1 0 0 1 1 1 2 2 2 2 2 2 2 2 2 2 2 0 1 2 2 2 3
6 7 8 9 8 7 6 6 5 5 4 3 3 2 2 2 1 1 1 1 1 1 2 2 2 3 3 3 3 3 2 2 2 2 2 1 1 1 1 2 2 2 3
6 6 8 9 8 7 6 5 4 4 3 2 2 2 2 1 1 1 1 2 2 3 3 3 4 4 4 4 4 3 2 2 2 1 1 1 1 2 2 2 2 2 3
6 5 7 8 7 6 5 4 4 3 2 2 1 2 2 2 2 2 3 3 3 3 4 4 4 5 6 5 5 4 3 3 1 1 1 2 2 3 2 3 2 2 3
5 4 5 6 6 5 5 4 3 2 1 1 1 2 3 3 4 4 4 4 4 4 4 5 5 6 6 6 5 5 4 3 2 1 2 3 4 3 3 3 3 3 3
4 3 2 3 3 4 3 3 2 1 1 1 2 3 3 4 5 5 5 5 5 5 5 5 5 5 6 5 5 5 4 3 1 2 2 3 4 4 4 4 3 3 3
3 2 1 1 1 1 1 2 2 2 2 2 3 3 4 4 5 5 5 5 5 5 5 5 5 5 5 5 5 5 4 2 1 2 3 4 6 5 5 5 4 3 4
2 1 2 1 1 0 1 1 2 3 3 4 4 4 5 5 5 6 6 5 5 5 5 5 5 5 5 5 5 4 3 1 2 3 4 5 6 6 5 5 5 5 4
4 3 2 2 1 0 1 1 2 2 3 3 3 4 4 3 4 4 6 6 6 5 5 5 5 5 4 4 4 4 3 2 2 3 4 5 6 6 6 6 6 6 5
5 3 3 3 2 1 0 1 1 2 2 3 3 3 3 3 3 3 4 5 6 5 4 5 5 4 3 2 3 3 3 2 2 3 4 5 5 6 6 6 6 6 6
4 4 3 3 2 2 1 0 1 1 1 1 2 2 2 2 2 2 2 3 3 3 3 3 2 3 3 3 3 3 3 2 2 3 4 5 5 5 5 6 6 6 7
5 4 3 3 3 2 2 0 1 0 0 1 2 2 1 0 1 1 1 2 2 3 2 2 2 2 2 2 3 2 2 3 2 2 3 5 5 4 5 6 7 6 7
6 5 3 4 3 3 2 1 1 1 0 1 1 1 0 0 0 1 1 1 2 2 2 1 2 2 2 2 2 2 2 2 2 2 3 4 4 4 4 5 7 7 7
6 5 4 4 3 3 2 1 1 1 1 1 1 2 2 1 1 0 1 2 2 3 2 1 2 1 2 2 2 3 2 2 2 2 2 2 3 3 3 5 6 6 7
6 6 4 4 4 4 3 2 1 1 1 1 2 2 2 2 1 0 1 2 3 2 1 1 1 1 2 2 2 2 2 1 2 2 1 2 1 1 2 3 4 6 7
7 7 5 4 4 3 3 2 2 2 2 1 2 2 3 3 2 1 1 2 2 1 1 1 1 0 1 2 2 1 2 1 2 1 1 1 1 1 1 2 3 5 6
7 6 5 4 4 4 3 3 2 2 2 2 2 2 3 3 3 1 1 2 2 1 1 1 1 1 0 1 1 2 2 2 1 1 1 0 1 0 1 1 1 2 4
6 6 5 5 4 3 2 2 1 0 1 2 2 3 3 3 3 1 2 2 1 1 1 1 0 1 1 1 1 2 3 2 2 2 1 1 1 1 1 1 1 1 2
7 6 6 5 4 3 2 2 1 1 1 1 2 3 3 3 3 2 1 1 1 1 1 1 0 1 1 1 1 2 2 4 3 3 2 2 1 1 1 1 1 1 2
7 8 7 6 5 4 3 2 2 2 2 2 2 3 3 4 4 2 2 2 1 1 1 1 1 2 1 1 1 2 2 1 1 3 3 2 2 2 2 2 1 1 2
8 7 6 6 5 4 4 3 3 2 1 2 2 3 4 4 3 3 2 1 1 1 1 2 1 1 2 1 1 1 1 2 2 1 2 2 2 2 2 2 2 2 1
7 7 6 5 4 4 4 4 3 2 2 2 2 3 4 4 4 4 3 2 1 1 1 1 1 1 1 2 1 1 1 1 1 2 0 2 2 2 1 1 1 2 2
5 6 6 6 5 4 4 4 4 4 2 1 2 3 3 3 3 4 3 2 2 1 1 1 1 2 1 2 1 1 2 2 1 2 1 0 1 2 1 1 1 1 1
Wind_Direction
170 172 158 141 131 125 121 117 114 111 109 107 108 110 116 120 121 117 116 118 115 111 109 103 95 91 73 62 55 52 52 56 55 57 57 51 58 63 81 83 75 69 72
147 154 151 139 130 126 122 116 112 109 106 104 105 108 111 117 120 122 126 124 122 120 114 110 94 89 68 52 43 38 35 38 37 38 40 30 34 62 78 84 83 88 79
137 144 145 139 131 127 122 118 116 108 104 103 102 105 108 109 112 120 130 133 131 123 98 42 342 0 351 1 4 8 12 16 12 24 34 19 358 61 87 91 92 94 87
137 139 144 140 134 129 123 118 111 107 101 98 99 97 98 97 99 109 125 136 142 170 267 331 335 316 303 301 311 326 343 357 0 16 30 5 340 127 115 102 102 95 93
132 138 147 141 138 133 126 118 111 106 101 94 90 87 89 88 85 74 49 349 326 299 296 296 307 308 303 299 298 305 315 332 345 13 31 5 327 277 173 139 123 106 99
130 136 147 143 141 136 131 128 122 113 103 88 71 61 49 47 28 360 347 329 318 312 308 304 301 295 294 295 295 298 302 312 344 4 348 306 280 253 212 167 144 120 102
139 140 149 150 148 146 142 138 132 123 104 83 53 26 5 352 334 323 326 321 313 307 306 304 301 300 296 294 295 294 288 293 342 317 280 262 255 244 219 177 163 140 115
140 137 149 158 157 159 156 153 152 144 128 79 7 348 342 336 326 312 310 309 308 303 304 307 305 301 298 293 291 293 292 287 289 303 265 250 254 244 222 194 183 158 134
124 125 132 141 157 172 179 184 189 214 268 306 336 341 339 333 327 315 307 305 300 300 305 305 303 299 297 293 290 290 291 283 269 270 268 254 255 247 226 203 193 177 152
122 132 137 142 145 167 221 238 238 287 303 317 334 341 347 346 342 336 330 320 311 306 304 305 304 303 303 299 292 298 302 308 270 265 264 259 254 246 228 206 200 186 162
169 183 178 182 195 217 283 305 336 341 347 355 356 355 359 354 347 345 340 338 332 326 323 319 316 317 315 316 310 310 318 307 269 264 257 256 253 243 226 210 204 193 175
198 211 200 197 201 234 294 13 10 8 7 6 360 358 359 356 348 352 350 347 346 346 344 340 341 341 345 344 334 329 326 299 267 263 261 256 253 242 228 213 204 196 185
196 199 194 193 182 176 216 23 38 25 10 4 4 3 10 10 1 6 360 352 354 355 357 348 352 354 355 339 326 319 309 286 262 263 272 269 258 241 228 213 206 201 194
180 190 190 173 162 166 156 105 90 51 8 347 343 360 26 18 3 357 352 341 346 347 344 344 343 338 338 325 314 305 301 284 269 262 271 274 263 244 229 218 213 208 201
180 181 177 160 158 152 141 154 103 107 316 319 346 351 41 89 328 327 327 335 331 334 335 332 331 323 322 316 308 302 295 289 277 266 274 284 273 251 239 232 224 214 207
183 178 162 154 154 141 140 151 158 139 113 40 12 348 24 170 234 294 319 323 319 312 311 311 304 304 303 297 303 308 292 289 278 269 269 287 277 258 243 234 228 221 213
177 168 164 160 148 143 140 144 124 123 102 67 19 3 8 345 307 295 311 308 302 308 312 320 324 337 326 319 311 306 296 284 284 282 282 283 277 259 237 234 226 219 217
166 164 172 157 144 143 136 128 108 111 87 44 5 360 352 347 344 360 309 301 305 313 320 305 332 339 335 331 317 312 317 316 298 274 261 268 258 251 245 244 224 219 220
172 167 164 145 148 143 122 97 76 73 54 17 358 353 342 340 344 356 316 304 316 329 327 316 37 328 322 321 310 328 343 337 313 308 283 266 232 210 241 247 228 225 221
169 165 151 141 137 120 96 74 52 41 21 10 354 335 337 337 342 351 317 316 333 355 337 338 342 5 329 310 352 16 360 350 347 348 310 325 36 67 156 171 201 232 222
163 161 155 151 152 131 113 109 96 8 329 333 327 328 329 331 336 332 316 326 335 324 287 288 354 29 13 356 52 14 1 9 22 3 347 30 39 26 66 124 148 199 219
173 171 168 167 168 165 150 146 162 175 256 276 308 330 331 332 330 327 313 306 306 306 325 329 86 95 20 42 104 82 13 360 4 3 11 35 37 39 39 56 132 169 191
182 182 181 180 178 173 145 108 74 48 20 359 336 328 325 325 329 329 313 298 301 271 269 262 202 149 135 23 73 135 136 212 327 348 6 18 23 45 32 25 68 124 170
194 184 179 178 181 174 154 149 144 148 205 248 264 288 309 319 329 332 321 301 289 268 262 260 191 172 148 138 28 62 149 164 139 9 353 0 14 39 35 30 39 59 95
186 179 178 174 184 179 173 168 156 170 215 260 288 308 319 323 327 329 323 311 300 274 260 258 180 171 162 160 160 153 95 74 103 146 355 345 0 355 21 38 41 46 61
177 175 173 178 194 190 186 179 177 188 204 255 298 309 316 317 321 328 325 322 305 284 265 241 201 183 182 167 166 160 151 147 165 149 178 274 329 320 345 41 35 25 35
Height
1507 1509 1510 1512 1514 1515 1516 1517 1518 1519 1519 1520 1520 1521 1521 1522 1522 1523 1523 1523 1523 1523 1524 1524 1523 1523 1523 1523 1523 1523 1522 1522 1522 1522 1521 1521 1521 1521 1520 1520 1519 1519 1518
1507 1509 1511 1513 1514 1515 1517 1517 1518 1519 1520 1520 1521 1521 1522 1522 1522 1523 1523 1523 1523 1523 1524 1524 1523 1523 1523 1523 1523 1523 1523 1522 1522 1522 1522 1522 1521 1521 1521 1520 1520 1519 1519
1508 1510 1512 1513 1514 1516 1517 1518 1519 1519 1520 1520 1521 1521 1521 1522 1522 1522 1523 1523 1523 1523 1523 1523 1523 1523 1523 1523 1523 1523 1523 1523 1523 1522 1522 1522 1522 1521 1521 1521 1520 1520 1519
1509 1511 1512 1514 1515 1516 1517 1518 1519 1519 1520 1520 1520 1521 1521 1521 1521 1522 1522 1522 1522 1522 1522 1523 1523 1523 1523 1523 1523 1523 1523 1523 1523 1523 1522 1522 1522 1522 1522 1521 1521 1521 1520
1510 1512 1513 1515 1516 1517 1517 1518 1519 1519 1520 1520 1520 1520 1520 1520 1521 1521 1521 1521 1521 1521 1521 1521 1522 1522 1522 1522 1522 1522 1522 1523 1523 1523 1522 1522 1522 1522 1522 1522 1522 1521 1521
1511 1513 1514 1515 1516 1517 1518 1518 1519 1519 1519 1519 1519 1519 1520 1520 1520 1520 1520 1520 1520 1520 1520 1520 1520 1521 1521 1521 1521 1522 1522 1522 1522 1522 1522 1522 1522 1522 1522 1522 1522 1522 1522
1512 1514 1515 1516 1517 1518 1518 1519 1519 1519 1519 1519 1519 1519 1519 1519 1519 1519 1519 1518 1518 1518 1518 1519 1519 1519 1520 1520 1520 1521 1521 1521 1522 1522 1522 1522 1522 1522 1522 1522 1522 1522 1522
1514 1515 1516 1517 1517 1518 1518 1519 1519 1519 1519 1519 1519 1518 1518 1518 1518 1518 1518 1517 1517 1517 1517 1517 1517 1517 1518 1519 1519 1519 1520 1520 1521 1521 1521 1522 1522 1522 1522 1522 1522 1523 1523
1515 1516 1516 1517 1518 1518 1519 1519 1519 1519 1519 1519 1518 1518 1518 1517 1517 1517 1516 1516 1516 1516 1516 1516 1516 1516 1516 1517 1517 1518 1518 1519 1519 1520 1521 1521 1522 1522 1522 1522 1523 1523 1523
1516 1516 1517 1517 1518 1518 1519 1519 1519 1519 1519 1518 1518 1518 1517 1517 1516 1516 1515 1515 1514 1514 1514 1514 1514 1514 1515 1515 1516 1516 1517 1517 1518 1519 1520 1520 1521 1521 1522 1522 1523 1523 1524
1516 1517 1517 1518 1518 1519 1519 1519 1519 1518 1518 1518 1517 1517 1516 1516 1516 1515 1514 1514 1513 1513 1513 1513 1513 1513 1513 1513 1514 1514 1515 1516 1517 1518 1518 1519 1520 1521 1521 1522 1522 1523 1524
1515 1517 1517 1518 1518 1518 1519 1519 1518 1518 1518 1517 1517 1516 1516 1515 1515 1514 1513 1513 1512 1512 1511 1511 1511 1511 1511 1511 1512 1513 1513 1514 1515 1516 1517 1518 1519 1520 1520 1521 1522 1523 1524
1515 1516 1517 1518 1518 1518 1518 1518 1518 1518 1517 1517 1516 1515 1515 1514 1514 1513 1512 1511 1511 1510 1510 1509 1509 1509 1509 1509 1510 1511 1511 1512 1513 1514 1516 1517 1518 1519 1520 1520 1521 1523 1524
1515 1516 1517 1517 1518 1518 1518 1518 1517 1517 1517 1516 1515 1514 1514 1513 1512 1512 1511 1510 1509 1508 1508 1508 1507 1507 1508 1508 1508 1509 1509 1510 1511 1512 1514 1515 1516 1517 1518 1520 1521 1522 1523
1515 1516 1517 1517 1517 1517 1517 1517 1517 1516 1516 1515 1514 1513 1513 1512 1511 1510 1509 1509 1508 1507 1506 1506 1506 1506 1506 1506 1506 1507 1507 1508 1509 1511 1512 1513 1515 1516 1517 1518 1520 1521 1523
1514 1515 1516 1517 1517 1517 1517 1516 1516 1516 1515 1514 1514 1513 1512 1511 1510 1509 1508 1507 1506 1505 1505 1504 1504 1504 1504 1504 1504 1505 1506 1506 1508 1509 1510 1512 1513 1514 1516 1517 1519 1520 1522
1514 1515 1516 1516 1516 1516 1516 1516 1515 1515 1514 1514 1513 1512 1511 1510 1508 1507 1506 1505 1505 1504 1503 1503 1503 1502 1502 1502 1503 1503 1504 1505 1505 1507 1508 1510 1511 1513 1514 1516 1517 1519 1521
1513 1514 1515 1515 1515 1515 1515 1515 1515 1514 1514 1513 1512 1511 1510 1509 1507 1506 1505 1504 1503 1502 1502 1501 1501 1501 1501 1501 1501 1501 1502 1503 1504 1505 1506 1508 1509 1511 1513 1514 1516 1518 1519
1513 1514 1514 1515 1515 1515 1515 1515 1514 1514 1513 1513 1512 1510 1509 1508 1506 1505 1504 1503 1502 1501 1500 1500 1500 1500 1500 1500 1500 1500 1500 1501 1502 1503 1504 1506 1508 1509 1511 1513 1515 1516 1518
1512 1513 1514 1514 1514 1514 1514 1514 1514 1513 1513 1512 1511 1510 1508 1507 1505 1504 1503 1502 1501 1500 1499 1499 1498 1499 1499 1499 1498 1499 1499 1500 1501 1501 1503 1504 1506 1508 1510 1511 1513 1515 1517
1511 1512 1512 1513 1513 1513 1513 1513 1513 1513 1512 1511 1510 1509 1508 1506 1504 1503 1502 1501 1500 1499 1498 1498 1497 1497 1497 1498 1498 1498 1498 1499 1499 1500 1501 1503 1505 1506 1508 1510 1512 1513 1515
1509 1510 1511 1512 1513 1513 1513 1513 1513 1512 1511 1511 1510 1509 1507 1506 1504 1502 1501 1500 1499 1498 1497 1497 1497 1497 1497 1497 1498 1498 1498 1500 1499 1499 1500 1502 1503 1505 1507 1508 1510 1512 1514
1508 1509 1510 1511 1512 1512 1512 1512 1512 1511 1511 1510 1509 1508 1507 1505 1504 1502 1501 1500 1498 1497 1497 1496 1496 1496 1496 1497 1497 1498 1498 1498 1498 1499 1499 1501 1502 1504 1505 1507 1509 1510 1512
1506 1508 1510 1511 1511 1512 1512 1511 1511 1510 1510 1509 1508 1507 1506 1505 1503 1502 1500 1499 1498 1496 1496 1495 1495 1495 1496 1496 1497 1497 1498 1498 1498 1499 1500 1500 1501 1503 1504 1505 1507 1509 1511
1505 1507 1508 1510 1510 1511 1511 1511 1510 1510 1509 1509 1508 1507 1506 1504 1503 1502 1500 1499 1497 1496 1495 1495 1495 1495 1495 1496 1496 1496 1497 1497 1498 1498 1499 1499 1501 1502 1503 1504 1505 1507 1509
1503 1505 1507 1508 1509 1509 1510 1510 1509 1509 1509 1508 1507 1506 1505 1504 1503 1501 1500 1498 1497 1495 1494 1494 1494 1494 1494 1495 1495 1496 1496 1497 1497 1497 1498 1499 1500 1501 1502 1503 1504 1505 1507